GW5273 Weather Reports


time (UTC)temp
C
wind
direction
speed
KPH
gust
KPH
rain 1hr
cm
rain 24hr
cm
rain mn
cm
humidity
%
barometer
mb
20260508023242 3 15 0.0 0.0 0.00 0.10 0.10 82 1015.7
20260508022737 3 15 0.0 0.0 0.00 0.10 0.10 83 1015.5
20260508022234 3 26 0.0 0.0 0.00 0.10 0.10 80 1015.4
20260508021730 3 26 0.0 0.0 0.00 0.10 0.10 80 1015.6
20260508021226 3 26 0.0 0.0 0.00 0.10 0.10 79 1015.3
20260508020723 4 26 0.0 0.0 0.00 0.10 0.10 78 1015.4
20260508020221 4 36 0.0 0.0 0.00 0.10 0.10 77 1015.4
20260508015718 4 36 0.0 0.0 0.00 0.10 0.10 77 1015.3
20260508015215 4 36 0.0 0.0 0.00 0.10 0.10 77 1015.5
20260508014712 4 36 0.0 0.0 0.00 0.10 0.10 76 1015.2
20260508014209 5 35 0.0 0.0 0.00 0.10 0.10 77 1015.5
20260508013704 5 35 0.0 0.0 0.00 0.10 0.10 77 1014.8
20260508013201 4 358 0.0 0.0 0.00 0.10 0.10 76 1014.9
20260508012659 4 358 0.0 0.0 0.00 0.10 0.10 77 1014.9
20260508012155 4 358 0.0 0.0 0.00 0.10 0.10 77 1015.1
20260508011654 4 358 0.0 0.0 0.00 0.10 0.10 77 1014.8
20260508011151 5 358 0.0 0.0 0.00 0.10 0.10 77 1014.7
20260508010647 5 358 0.0 0.0 0.00 0.10 0.10 76 1014.8
20260508010145 5 358 0.0 0.0 0.00 0.10 0.10 74 1014.8
20260508005642 5 358 0.0 0.0 0.00 0.10 0.10 74 1014.6
20260508005139 5 358 0.0 0.0 0.00 0.10 0.10 74 1014.5
20260508004634 5 358 0.0 0.0 0.00 0.10 0.10 73 1014.5
20260508004131 6 358 0.0 0.0 0.00 0.10 0.10 70 1014.4
20260508003627 6 358 0.0 0.0 0.00 0.10 0.10 69 1014.5
20260508003125 6 358 0.0 0.0 0.00 0.10 0.10 69 1014.3
20260508002621 6 358 0.0 0.0 0.00 0.10 0.10 71 1014.3
20260508002114 6 358 0.0 0.0 0.00 0.10 0.10 66 1014.0
20260508001613 7 358 0.0 0.0 0.00 0.10 0.10 67 1014.2
20260508001110 7 358 0.0 0.0 0.00 0.10 0.10 65 1014.2
20260508000606 7 358 0.0 0.0 0.00 0.10 0.10 67 1014.4
20260508000103 7 31 0.0 0.0 0.00 0.10 0.10 67 1014.3
20260507235600 7 46 0.0 0.0 0.00 0.10 0.10 65 1013.7
20260507235057 7 45 0.0 1.6 0.00 0.10 0.10 64 1014.0
20260507234554 8 23 0.0 3.2 0.00 0.10 0.10 62 1013.9
20260507234051 8 0 0.0 0.0 0.00 0.10 0.10 63 1013.9
20260507233548 8 108 0.0 0.0 0.00 0.10 0.10 61 1013.7
20260507233047 8 97 0.0 0.0 0.00 0.10 0.10 64 1013.7
20260507232542 8 12 0.0 0.0 0.00 0.10 0.10 62 1013.5
20260507232039 8 340 0.0 3.2 0.00 0.10 0.10 61 1013.4
20260507231536 8 290 1.6 3.2 0.00 0.10 0.10 63 1013.5
20260507231033 8 67 0.0 0.0 0.00 0.10 0.10 65 1013.5
20260507230529 8 2 0.0 0.0 0.00 0.10 0.10 63 1013.5
20260507230026 8 103 0.0 0.0 0.00 0.10 0.10 62 1013.5
20260507225521 9 158 0.0 1.6 0.00 0.10 0.10 66 1013.6
20260507225018 9 143 0.0 0.0 0.00 0.10 0.10 58 1013.6
20260507224514 10 103 0.0 3.2 0.00 0.10 0.10 60 1013.5
20260507224010 9 135 1.6 3.2 0.00 0.10 0.10 60 1013.5
20260507223506 9 25 0.0 3.2 0.00 0.10 0.10 62 1013.4
20260507223003 10 90 0.0 1.6 0.00 0.10 0.10 64 1013.6
20260507222501 10 335 3.2 3.2 0.00 0.10 0.10 60 1013.4
20260507221957 10 8 0.0 1.6 0.00 0.10 0.10 57 1013.3
20260507221454 10 32 0.0 1.6 0.00 0.10 0.10 58 1013.1
20260507220950 10 11 0.0 0.0 0.00 0.10 0.10 55 1013.1
20260507220448 10 60 1.6 1.6 0.00 0.10 0.10 57 1013.0
20260507215944 10 38 0.0 4.8 0.00 0.10 0.10 60 1013.1
20260507215441 10 79 0.0 3.2 0.00 0.10 0.10 57 1013.3
20260507214938 11 125 0.0 1.6 0.00 0.10 0.10 56 1013.0
20260507214436 11 48 0.0 1.6 0.00 0.10 0.10 54 1013.0
20260507213931 11 97 0.0 0.0 0.00 0.10 0.10 56 1013.1
20260507213428 11 127 0.0 1.6 0.00 0.10 0.10 59 1013.0
20260507212925 10 0 0.0 0.0 0.00 0.10 0.10 64 1013.0
20260507212420 10 137 0.0 3.2 0.00 0.10 0.10 60 1012.9
20260507211918 10 328 0.0 6.4 0.00 0.10 0.10 59 1012.8
20260507211409 10 23 0.0 3.2 0.00 0.10 0.10 59 1012.8
20260507210906 10 24 0.0 3.2 0.00 0.10 0.10 60 1012.8
20260507210403 11 82 1.6 1.6 0.00 0.10 0.10 59 1012.9
20260507205859 11 147 0.0 3.2 0.00 0.10 0.10 59 1012.6
20260507205357 11 50 0.0 1.6 0.00 0.10 0.10 56 1012.6
20260507204852 11 34 1.6 3.2 0.00 0.10 0.10 58 1012.5
20260507204349 10 193 1.6 3.2 0.00 0.10 0.10 58 1012.6
20260507203847 10 328 0.0 0.0 0.00 0.10 0.10 60 1012.8
20260507203344 10 21 0.0 0.0 0.00 0.10 0.10 60 1012.9
20260507202840 10 85 0.0 1.6 0.00 0.10 0.10 59 1012.8
20260507202337 11 26 1.6 1.6 0.00 0.10 0.10 57 1012.8
20260507201832 10 63 1.6 6.4 0.00 0.10 0.10 61 1012.9
20260507201328 10 16 0.0 1.6 0.00 0.10 0.10 63 1013.1
20260507200824 11 238 0.0 1.6 0.00 0.10 0.10 60 1013.1
20260507200321 11 140 0.0 1.6 0.00 0.10 0.10 61 1013.2
20260507195816 11 106 0.0 0.0 0.00 0.10 0.10 56 1013.1
20260507195314 11 237 3.2 3.2 0.00 0.10 0.10 63 1013.2
20260507194811 11 101 0.0 3.2 0.00 0.10 0.10 58 1013.2
20260507194307 11 132 1.6 3.2 0.00 0.10 0.10 60 1013.3
20260507193804 11 74 1.6 3.2 0.00 0.10 0.10 55 1013.2
20260507193301 11 116 0.0 0.0 0.00 0.10 0.10 57 1013.0
20260507192757 11 18 1.6 9.7 0.00 0.10 0.10 57 1013.1
20260507192254 11 37 0.0 4.8 0.00 0.10 0.10 58 1013.4
20260507191750 11 74 0.0 1.6 0.00 0.10 0.10 57 1013.2
20260507191247 11 140 0.0 3.2 0.00 0.10 0.10 62 1013.4
20260507190743 11 18 1.6 3.2 0.00 0.10 0.10 60 1013.0
20260507190242 11 63 1.6 9.7 0.00 0.10 0.10 54 1013.2
20260507185740 12 359 3.2 3.2 0.00 0.10 0.10 54 1013.1
20260507185237 12 93 3.2 4.8 0.00 0.10 0.10 58 1013.2
20260507184735 13 62 3.2 4.8 0.00 0.10 0.10 54 1013.2
20260507184232 12 56 1.6 1.6 0.00 0.10 0.10 57 1013.4
20260507183729 12 111 0.0 3.2 0.00 0.10 0.10 58 1013.5
20260507183226 12 150 0.0 1.6 0.00 0.10 0.10 68 1013.3
20260507182723 13 34 0.0 1.6 0.00 0.10 0.10 55 1013.3
20260507182218 13 108 0.0 4.8 0.00 0.10 0.10 63 1013.3
20260507181715 12 84 0.0 1.6 0.00 0.10 0.10 58 1013.3
20260507181212 11 146 1.6 3.2 0.00 0.10 0.10 74 1013.3
20260507180709 12 9 1.6 1.6 0.00 0.10 0.10 57 1013.3
20260507180205 12 125 0.0 1.6 0.00 0.10 0.10 59 1013.4
20260507175700 12 324 0.0 1.6 0.00 0.10 0.10 66 1013.4
20260507175158 12 230 0.0 3.2 0.00 0.10 0.10 70 1013.4
20260507174655 12 50 1.6 3.2 0.00 0.10 0.10 56 1013.1
20260507174153 13 91 1.6 3.2 0.00 0.10 0.10 59 1013.6
20260507173650 13 42 0.0 3.2 0.00 0.10 0.10 57 1013.5
20260507173147 13 71 0.0 3.2 0.00 0.10 0.10 57 1013.5
20260507172644 13 58 0.0 4.8 0.00 0.10 0.10 58 1013.5
20260507172141 13 65 0.0 1.6 0.00 0.10 0.10 66 1013.7
20260507171641 12 39 1.6 3.2 0.00 0.10 0.10 63 1013.6
20260507171138 12 39 1.6 3.2 0.00 0.10 0.10 67 1013.9
20260507170635 12 22 0.0 3.2 0.00 0.10 0.10 71 1014.0
20260507170133 12 42 3.2 4.8 0.00 0.10 0.10 66 1014.1
20260507165628 12 1 0.0 1.6 0.00 0.10 0.10 65 1014.2
20260507165124 11 8 1.6 3.2 0.00 0.10 0.10 63 1014.4
20260507164620 12 16 3.2 4.8 0.00 0.10 0.10 70 1014.5
20260507164117 11 39 0.0 3.2 0.00 0.10 0.10 70 1014.4
20260507163615 12 0 1.6 3.2 0.00 0.10 0.10 74 1014.4
20260507163113 11 25 3.2 3.2 0.00 0.10 0.10 71 1014.4
20260507162614 10 304 3.2 4.8 0.00 0.10 0.10 75 1014.5
20260507162110 9 41 0.0 0.0 0.00 0.10 0.10 77 1014.5
20260507161606 10 63 1.6 4.8 0.00 0.10 0.10 76 1014.7
20260507161103 10 335 0.0 1.6 0.00 0.10 0.10 78 1014.6
20260507160600 10 335 1.6 4.8 0.00 0.10 0.10 74 1014.7
20260507160056 11 67 0.0 1.6 0.00 0.10 0.10 76 1014.7
20260507155551 11 67 0.0 1.6 0.00 0.10 0.10 74 1014.6
20260507155049 10 132 0.0 1.6 0.00 0.10 0.10 79 1014.7
20260507154545 11 21 0.0 1.6 0.00 0.10 0.10 75 1014.6
20260507154043 11 261 0.0 1.6 0.00 0.10 0.10 80 1014.6
20260507153539 10 46 3.2 3.2 0.00 0.10 0.10 78 1014.7
20260507153035 10 48 1.6 3.2 0.00 0.10 0.10 84 1014.8
20260507152531 9 72 0.0 0.0 0.00 0.10 0.10 82 1014.9
20260507152028 9 63 1.6 6.4 0.00 0.10 0.10 85 1014.7
20260507151524 10 345 0.0 3.2 0.00 0.10 0.10 85 1014.8
20260507151022 10 26 1.6 3.2 0.00 0.10 0.10 85 1014.6
20260507150519 10 88 1.6 1.6 0.00 0.10 0.10 87 1014.7
20260507150016 10 62 1.6 1.6 0.00 0.10 0.10 86 1014.9
20260507145516 10 129 1.6 1.6 0.00 0.10 0.10 89 1015.2
20260507145014 9 130 1.6 3.2 0.00 0.10 0.10 89 1015.2
20260507144510 8 13 3.2 3.2 0.00 0.10 0.10 86 1015.4
20260507144008 7 40 0.0 1.6 0.00 0.10 0.10 91 1015.4
20260507143505 7 16 0.0 0.0 0.00 0.10 0.10 91 1015.5
20260507143002 7 22 0.0 0.0 0.00 0.10 0.10 93 1015.6
20260507142457 7 19 0.0 0.0 0.00 0.10 0.10 92 1015.5
20260507141954 7 32 0.0 0.0 0.00 0.10 0.10 93 1015.7
20260507141450 6 20 0.0 0.0 0.00 0.10 0.10 95 1015.6
20260507140947 6 22 0.0 3.2 0.00 0.10 0.10 94 1015.7
20260507140444 6 276 0.0 3.2 0.00 0.10 0.10 97 1015.8
20260507135942 6 353 0.0 0.0 0.00 0.10 0.10 97 1015.7
20260507135438 6 353 0.0 0.0 0.00 0.10 0.10 96 1015.7
20260507134935 6 354 0.0 0.0 0.00 0.10 0.10 97 1016.0
20260507134432 6 301 0.0 0.0 0.00 0.10 0.10 97 1015.8
20260507133928 6 343 0.0 0.0 0.00 0.10 0.10 99 1016.0
20260507133424 6 343 0.0 0.0 0.00 0.10 0.10 99 1015.9
20260507132923 6 346 0.0 0.0 0.00 0.10 0.10 99 1015.9
20260507132418 6 346 0.0 0.0 0.00 0.10 0.10 99 1015.9
20260507131915 6 346 0.0 1.6 0.00 0.10 0.10 99 1015.9
20260507131412 5 345 0.0 0.0 0.00 0.10 0.10 99 1015.8
20260507130909 5 345 0.0 0.0 0.00 0.10 0.10 99 1015.8
20260507130406 6 345 0.0 0.0 0.00 0.10 0.10 99 1016.0
20260507125905 5 345 0.0 0.0 0.00 0.10 0.10 99 1016.0
20260507125402 5 345 0.0 0.0 0.00 0.10 0.10 99 1015.8
20260507124900 5 345 0.0 0.0 0.00 0.10 0.10 99 1015.9
20260507124355 5 345 0.0 0.0 0.00 0.10 0.10 99 1016.2
20260507123854 5 341 0.0 0.0 0.00 0.10 0.10 99 1016.0
20260507123351 5 341 0.0 0.0 0.00 0.10 0.10 99 1016.5
20260507122847 5 341 0.0 0.0 0.00 0.10 0.10 99 1016.4
20260507122343 5 341 0.0 0.0 0.00 0.10 0.10 99 1016.2
20260507121839 5 341 0.0 0.0 0.00 0.10 0.10 99 1016.2
20260507121335 5 341 0.0 0.0 0.00 0.10 0.10 99 1015.8
20260507120832 5 341 0.0 0.0 0.00 0.10 0.10 99 1015.9
20260507120328 4 341 0.0 0.0 0.00 0.10 0.10 99 1015.8
20260507115824 4 341 0.0 0.0 0.00 0.10 0.10 99 1016.0
20260507115320 4 341 0.0 0.0 0.00 0.10 0.10 99 1016.0
20260507114816 4 341 0.0 0.0 0.00 0.10 0.10 99 1015.9
20260507114313 5 341 0.0 0.0 0.00 0.10 0.10 99 1015.9
20260507113811 5 341 0.0 0.0 0.00 0.10 0.10 99 1016.0
20260507113307 4 341 0.0 0.0 0.00 0.10 0.10 99 1015.7
20260507112805 4 341 0.0 0.0 0.00 0.10 0.10 99 1015.6
20260507112306 4 341 0.0 0.0 0.00 0.10 0.10 99 1015.6
20260507111800 4 341 0.0 0.0 0.00 0.10 0.10 99 1015.4
20260507111256 4 341 0.0 0.0 0.00 0.10 0.10 99 1015.3
20260507110752 4 341 0.0 0.0 0.00 0.10 0.10 99 1015.3
20260507110249 4 341 0.0 0.0 0.00 0.10 0.10 99 1015.4
20260507105746 4 341 0.0 0.0 0.00 0.10 0.10 99 1015.3
20260507105241 4 341 0.0 0.0 0.00 0.10 0.10 99 1015.4
20260507104739 4 341 0.0 0.0 0.00 0.10 0.10 99 1015.4
20260507104236 4 341 0.0 0.0 0.00 0.10 0.10 99 1015.5
20260507103732 4 341 0.0 0.0 0.00 0.10 0.10 99 1015.4
20260507103228 4 341 0.0 0.0 0.00 0.10 0.10 99 1015.3
20260507102724 4 341 0.0 0.0 0.00 0.10 0.10 99 1015.1
20260507102221 4 341 0.0 0.0 0.00 0.10 0.10 99 1015.2
20260507101717 4 341 0.0 0.0 0.00 0.10 0.10 99 1015.3
20260507101212 5 351 0.0 0.0 0.00 0.10 0.10 99 1014.9
20260507100710 5 350 0.0 0.0 0.00 0.10 0.10 99 1014.8
20260507100208 5 331 0.0 0.0 0.00 0.10 0.10 99 1014.8
20260507095706 5 331 0.0 0.0 0.00 0.10 0.10 99 1014.7
20260507095202 5 331 0.0 0.0 0.00 0.10 0.10 99 1014.6
20260507094659 5 331 0.0 0.0 0.00 0.10 0.10 99 1014.5
20260507094155 5 330 0.0 0.0 0.00 0.10 0.10 99 1014.4
20260507093653 5 330 0.0 0.0 0.00 0.10 0.10 99 1014.7
20260507093152 5 330 0.0 0.0 0.13 0.10 0.10 99 1014.8
20260507092648 5 330 0.0 0.0 0.13 0.10 0.10 99 1014.7
20260507092145 5 330 0.0 0.0 0.00 0.08 0.08 99 1014.9
20260507091641 5 330 0.0 0.0 0.00 0.08 0.08 99 1014.8
20260507091137 5 330 0.0 0.0 0.00 0.08 0.08 99 1014.9
20260507090633 5 330 0.0 0.0 0.00 0.08 0.08 99 1015.1
20260507090131 5 330 0.0 0.0 0.00 0.08 0.08 99 1014.8
20260507085627 5 330 0.0 0.0 0.18 0.08 0.08 99 1014.7
20260507085124 5 330 0.0 0.0 0.18 0.08 0.08 99 1014.6
20260507084621 5 330 0.0 0.0 0.00 0.05 0.05 99 1014.8
20260507084118 5 330 0.0 0.0 0.00 0.05 0.05 99 1014.6
20260507083614 5 330 0.0 0.0 0.00 0.05 0.05 99 1014.9
20260507083112 5 330 0.0 0.0 0.00 0.05 0.05 99 1014.9
20260507082607 5 330 0.0 0.0 0.00 0.05 0.05 99 1014.9
20260507082104 5 330 0.0 0.0 0.00 0.05 0.05 99 1014.8
20260507081600 5 330 0.0 0.0 0.00 0.05 0.05 99 1014.8
20260507081057 5 330 0.0 0.0 0.00 0.05 0.05 99 1014.8
20260507080553 5 330 0.0 0.0 0.00 0.05 0.05 99 1014.6
20260507080050 5 330 0.0 0.0 0.00 0.05 0.05 99 1014.6
20260507075545 5 330 0.0 0.0 0.00 0.05 0.05 99 1014.7
20260507075041 5 330 0.0 0.0 0.00 0.05 0.05 99 1014.9
20260507074538 5 330 0.0 0.0 0.00 0.05 0.05 99 1014.8
20260507074037 5 330 0.0 0.0 0.00 0.05 0.05 99 1014.8
20260507073533 5 330 0.0 0.0 0.00 0.05 0.05 99 1014.5
20260507073029 5 330 0.0 0.0 0.00 0.05 0.05 99 1014.8
20260507072527 5 330 0.0 0.0 0.00 0.05 0.05 99 1014.7
20260507072024 5 330 0.0 0.0 0.00 0.05 0.05 99 1014.9
20260507071521 5 330 0.0 0.0 0.00 0.05 0.05 99 1014.6
20260507071018 5 330 0.0 0.0 0.00 0.05 0.05 99 1014.9
20260507070515 5 330 0.0 0.0 0.00 0.05 0.05 99 1014.7
20260507070013 5 330 0.0 0.0 0.00 0.05 0.05 99 1014.9
20260507065508 5 330 0.0 0.0 0.00 0.05 0.05 99 1014.9
20260507065005 5 330 0.0 0.0 0.00 0.05 0.05 99 1014.7
20260507064504 5 330 0.0 0.0 0.00 0.05 0.05 99 1014.6
20260507064001 5 330 0.0 0.0 0.00 0.05 0.05 99 1014.6
20260507063458 5 330 0.0 0.0 0.00 0.05 0.05 99 1014.5
20260507062955 5 330 0.0 0.0 0.00 0.05 0.05 99 1014.7
20260507062452 5 330 0.0 0.0 0.18 0.05 0.05 99 1014.8
20260507061949 5 330 0.0 0.0 0.18 0.05 0.05 99 1015.2
20260507061447 5 330 0.0 0.0 0.00 0.03 0.03 99 1015.2
20260507060945 5 330 0.0 0.0 0.00 0.03 0.03 99 1015.2
20260507060442 5 330 0.0 0.0 0.00 0.03 0.03 99 1015.5
20260507055938 5 330 0.0 0.0 0.00 0.03 0.03 99 1015.3
20260507055434 5 330 0.0 0.0 0.00 0.03 0.03 99 1015.6
20260507054931 5 330 0.0 0.0 0.00 0.03 0.03 99 1015.6
20260507054427 5 330 0.0 0.0 0.00 0.03 0.03 99 1015.4
20260507053924 5 330 0.0 0.0 0.00 0.03 0.03 99 1015.6
20260507053422 5 341 0.0 0.0 0.00 0.03 0.03 99 1015.8
20260507052920 5 341 0.0 0.0 0.00 0.03 0.03 99 1015.7
20260507052417 5 343 0.0 0.0 0.00 0.03 0.03 99 1015.7
20260507051914 5 343 0.0 0.0 0.00 0.03 0.03 99 1015.7
20260507051412 5 345 0.0 0.0 0.00 0.03 0.03 99 1015.7
20260507050909 6 345 0.0 0.0 0.00 0.03 0.03 99 1015.8
20260507050405 6 5 0.0 0.0 0.00 0.03 0.03 99 1015.8
20260507045902 6 0 0.0 1.6 0.00 0.03 0.03 99 1015.7
20260507045359 6 241 0.0 0.0 0.00 0.03 0.03 99 1015.6
20260507044856 6 356 0.0 0.0 0.13 0.03 0.03 99 1015.6
20260507044352 6 253 0.0 0.0 0.13 0.03 0.03 99 1015.5
20260507043848 6 253 0.0 0.0 0.00 0.00 0.00 99 1015.6
20260507043345 6 230 0.0 0.0 0.00 0.00 0.00 99 1015.5
20260507042841 6 231 0.0 0.0 0.00 0.00 0.00 99 1015.3
20260507042337 6 231 0.0 0.0 0.00 0.00 0.00 99 1015.3
20260507041834 6 231 0.0 0.0 0.00 0.00 0.00 99 1015.4
20260507041331 6 231 0.0 0.0 0.00 0.00 0.00 99 1015.4
20260507040828 6 231 0.0 0.0 0.00 0.00 0.00 99 1015.4
20260507040324 7 231 0.0 0.0 0.18 0.00 0.00 99 1015.2
20260507035820 7 143 0.0 0.0 0.18 1.91 1.91 99 1015.2
20260507035315 7 143 0.0 0.0 0.00 1.88 1.88 99 1015.3
20260507034814 7 319 0.0 0.0 0.13 1.88 1.88 99 1015.2
20260507034310 7 319 0.0 0.0 0.13 1.88 1.88 99 1015.2
20260507033809 7 235 0.0 0.0 0.00 1.85 1.85 99 1015.5
20260507033306 7 235 0.0 0.0 0.18 1.85 1.85 99 1015.6
20260507032803 7 235 0.0 0.0 0.18 1.85 1.85 99 1014.7
20260507032259 7 211 0.0 0.0 0.00 1.83 1.83 99 1015.5
20260507031755 8 250 0.0 0.0 0.00 1.83 1.83 99 1016.0
20260507031252 8 250 0.0 0.0 0.00 1.83 1.83 99 1015.6
20260507030749 8 250 0.0 0.0 0.00 1.83 1.83 99 1015.3
20260507030246 7 250 0.0 0.0 0.13 1.83 1.83 99 1014.7
20260507025743 8 252 0.0 0.0 0.13 1.83 1.83 99 1015.1
20260507025240 8 252 0.0 0.0 0.00 1.80 1.80 99 1015.3
20260507024739 8 247 0.0 0.0 0.00 1.80 1.80 99 1015.3
20260507024235 8 247 0.0 0.0 0.00 1.80 1.80 99 1015.5